Regional Weather Roundup
Issued by NWS

Home | Current Version | Previous Version | Graphics & Text | Print | Product List | Glossary On
Versions: 1 2 3 4 5 6 7 8 9 10 11 12 13 14 15 16 17 18 19 20 21 22 23 24 25 26 27 28 29 30 31 32 33 34 35 36 37 38 39 40 41 42 43 44 45 46 47 48 49 50
131
ASUS45 KCYS 232310
RWRWY

WYOMING REGIONAL WEATHER ROUNDUP
NATIONAL WEATHER SERVICE CHEYENNE WY
500 PM MDT TUE AUG 23 2016

NOTE:  "FAIR" INDICATES FEW OR NO CLOUDS BELOW 12,000 FEET
WITH NO SIGNIFICANT WEATHER AND/OR OBSTRUCTIONS TO VISIBILITY.

WYZ001-240000-
YELLOWSTONE NATIONAL PARK

CITY           SKY/WX    TMP DP  RH WIND       PRES   REMARKS
LK YELLOWSTONE   N/A     65   9  11 MISG      30.24R
W YELLOWSTONE  NOT AVBL

$$
WYZ002>013-054>058-071-098>099-240000-
NORTHERN WYOMING

CITY           SKY/WX    TMP DP  RH WIND       PRES   REMARKS
JACKSON        NOT AVBL
CODY           FAIR      66  32  28 N13       30.06R
GREYBULL       FAIR      83  15   8 NW9       29.96S
WORLAND        FAIR      82  19   9 N14       29.96F
SHERIDAN       FAIR      77  30  17 NE8       30.03S
BUFFALO        FAIR      74  25  16 N10       30.08S
GILLETTE       FAIR      77  27  15 NE7       30.03F
HULETT         FAIR      73  30  20 N6        30.05S
NEWCASTLE      FAIR      77  23  13 N14       30.03S

$$
WYZ014>020-022>026-101>103-240000-
CENTRAL WYOMING

CITY           SKY/WX    TMP DP  RH WIND       PRES   REMARKS
BIG PINEY      FAIR      76  17  11 NW21G29   30.18R
PINEDALE       FAIR      73  18  12 NW16G25   30.18S
DUBOIS         FAIR      70  12  11 N23G31    30.14S
LANDER         FAIR      84  15   7 W22G31    30.01S
RIVERTON       FAIR      83  11   6 NW14G20   29.99F
CASPER         FAIR      81  16   9 VRB6      30.01F
DOUGLAS        FAIR      81  19  10 E16       30.01F

$$
WYZ021-027>030-104>119-240000-
SOUTHERN WYOMING

CITY           SKY/WX    TMP DP  RH WIND       PRES   REMARKS
EVANSTON       FAIR      75  25  15 W17G32    30.22F
FORT BRIDGER   PTCLDY    79  25  13 W22G32    30.22S
ROCK SPRINGS   PTSUNNY   78  23  13 W30G38    30.14F
DIXON          FAIR      79  27  15 W9        30.17S
RAWLINS        FAIR      80  18  10 W22G29    30.13F
SARATOGA       FAIR      77  23  13 S9        30.17F
LARAMIE        FAIR      75  23  14 W8G17     30.18S
CHEYENNE       FAIR      79  22  12 NW9       30.11S
TORRINGTON     FAIR      84  20   9 N15       29.98S
PINE BLUFFS    FAIR      82  25  12 MISG      30.05S

$$




USA.gov is the U.S. government's official web portal to all federal, state and local government web resources and services.